Time,TemperatureF,DewpointF,PressureIn,WindDirection,WindDirectionDegrees,WindSpeedMPH,WindSpeedGustMPH,Humidity,HourlyPrecipIn,Conditions,Clouds,dailyrainin,SoftwareType,DateUTC
2013-10-15 00:00:00,45.9,44.5,30.27,SSE,159,0.0,16.0,95,0.00,,,0.07,Wunderground v.1.15,2013-10-15 04:00:00,
2013-10-15 00:05:00,45.7,44.4,30.27,SSE,159,0.0,16.0,95,0.00,,,0.00,Wunderground v.1.15,2013-10-15 04:05:00,
2013-10-15 00:10:00,45.9,44.8,30.27,SSE,159,0.0,16.0,96,0.00,,,0.00,Wunderground v.1.15,2013-10-15 04:10:00,
2013-10-15 00:15:00,45.9,44.8,30.27,SSE,159,0.0,16.0,96,0.00,,,0.00,Wunderground v.1.15,2013-10-15 04:15:00,
2013-10-15 00:20:00,45.7,44.4,30.27,SSE,159,0.0,16.0,95,0.00,,,0.00,Wunderground v.1.15,2013-10-15 04:20:00,
2013-10-15 00:25:00,45.5,44.2,30.26,SSE,159,0.0,16.0,95,0.00,,,0.00,Wunderground v.1.15,2013-10-15 04:25:00,
2013-10-15 00:30:00,45.2,43.9,30.27,SSE,159,0.0,16.0,95,0.00,,,0.00,Wunderground v.1.15,2013-10-15 04:30:00,
2013-10-15 00:35:00,45.0,43.9,30.27,SSE,159,0.0,16.0,96,0.00,,,0.00,Wunderground v.1.15,2013-10-15 04:35:00,
2013-10-15 00:40:00,44.8,43.7,30.27,South,174,0.0,16.0,96,0.00,,,0.00,Wunderground v.1.15,2013-10-15 04:40:00,
2013-10-15 00:45:00,45.0,44.2,30.27,South,174,0.0,16.0,97,0.00,,,0.00,Wunderground v.1.15,2013-10-15 04:45:00,
2013-10-15 00:50:00,44.9,43.8,30.27,South,174,0.0,16.0,96,0.00,,,0.00,Wunderground v.1.15,2013-10-15 04:50:00,
2013-10-15 00:59:00,44.7,43.9,30.27,South,174,0.0,16.0,97,0.00,,,0.00,Wunderground v.1.15,2013-10-15 04:59:00,
2013-10-15 01:04:00,44.8,44.0,30.27,South,174,0.0,16.0,97,0.00,,,0.00,Wunderground v.1.15,2013-10-15 05:04:00,
2013-10-15 01:09:00,44.6,43.8,30.27,South,174,0.0,16.0,97,0.00,,,0.00,Wunderground v.1.15,2013-10-15 05:09:00,
2013-10-15 01:15:00,44.5,43.7,30.27,South,174,0.0,16.0,97,0.00,,,0.00,Wunderground v.1.15,2013-10-15 05:15:00,
2013-10-15 01:20:00,44.5,43.7,30.26,South,174,0.0,16.0,97,0.00,,,0.00,Wunderground v.1.15,2013-10-15 05:20:00,
2013-10-15 01:24:00,44.4,43.6,30.26,South,174,0.0,16.0,97,0.00,,,0.00,Wunderground v.1.15,2013-10-15 05:24:00,
2013-10-15 01:30:00,44.4,43.6,30.26,South,174,0.0,16.0,97,0.00,,,0.00,Wunderground v.1.15,2013-10-15 05:30:00,
2013-10-15 01:35:00,44.3,43.5,30.26,South,174,0.0,16.0,97,0.00,,,0.00,Wunderground v.1.15,2013-10-15 05:35:00,
2013-10-15 01:40:00,44.1,43.3,30.26,South,174,0.0,16.0,97,0.00,,,0.00,Wunderground v.1.15,2013-10-15 05:40:00,
2013-10-15 01:45:00,44.1,43.3,30.26,South,174,0.0,16.0,97,0.00,,,0.00,Wunderground v.1.15,2013-10-15 05:45:00,
2013-10-15 01:50:00,43.9,43.1,30.26,South,174,0.0,16.0,97,0.00,,,0.00,Wunderground v.1.15,2013-10-15 05:50:00,
2013-10-15 01:55:00,43.8,43.0,30.25,South,174,0.0,16.0,97,0.00,,,0.00,Wunderground v.1.15,2013-10-15 05:55:00,
2013-10-15 02:05:00,43.8,43.0,30.25,South,178,0.0,16.0,97,0.00,,,0.00,Wunderground v.1.15,2013-10-15 06:05:00,
2013-10-15 02:10:00,43.8,43.0,30.25,South,178,0.0,16.0,97,0.00,,,0.00,Wunderground v.1.15,2013-10-15 06:10:00,
2013-10-15 02:15:00,43.7,42.9,30.25,South,178,0.0,16.0,97,0.00,,,0.00,Wunderground v.1.15,2013-10-15 06:15:00,
2013-10-15 02:20:00,43.6,42.8,30.25,South,178,0.0,16.0,97,0.00,,,0.00,Wunderground v.1.15,2013-10-15 06:20:00,
2013-10-15 02:25:00,43.4,42.6,30.25,South,178,0.0,16.0,97,0.00,,,0.00,Wunderground v.1.15,2013-10-15 06:25:00,
2013-10-15 02:35:00,43.3,42.8,30.25,South,178,0.0,16.0,98,0.00,,,0.00,Wunderground v.1.15,2013-10-15 06:35:00,
2013-10-15 02:40:00,43.2,42.7,30.25,South,178,0.0,16.0,98,0.00,,,0.00,Wunderground v.1.15,2013-10-15 06:40:00,
2013-10-15 02:45:00,43.1,42.3,30.25,South,178,0.0,16.0,97,0.00,,,0.00,Wunderground v.1.15,2013-10-15 06:45:00,
2013-10-15 02:50:00,43.1,42.6,30.25,South,178,0.0,16.0,98,0.00,,,0.00,Wunderground v.1.15,2013-10-15 06:50:00,
2013-10-15 02:55:00,42.6,41.8,30.24,South,178,0.0,16.0,97,0.00,,,0.00,Wunderground v.1.15,2013-10-15 06:55:00,
2013-10-15 03:00:00,42.4,41.6,30.24,South,178,0.0,16.0,97,0.00,,,0.00,Wunderground v.1.15,2013-10-15 07:00:00,
2013-10-15 03:10:00,42.1,41.6,30.24,South,178,0.0,16.0,98,0.00,,,0.00,Wunderground v.1.15,2013-10-15 07:10:00,
2013-10-15 03:15:00,42.1,41.6,30.24,South,178,0.0,16.0,98,0.00,,,0.00,Wunderground v.1.15,2013-10-15 07:15:00,
2013-10-15 03:20:00,42.1,41.6,30.24,South,178,0.0,16.0,98,0.00,,,0.00,Wunderground v.1.15,2013-10-15 07:20:00,
2013-10-15 03:25:00,42.1,41.6,30.24,South,178,0.0,16.0,98,0.00,,,0.00,Wunderground v.1.15,2013-10-15 07:25:00,
2013-10-15 03:30:00,42.0,41.5,30.24,South,178,0.0,16.0,98,0.00,,,0.00,Wunderground v.1.15,2013-10-15 07:30:00,
2013-10-15 03:40:00,41.8,41.3,30.23,South,178,0.0,16.0,98,0.00,,,0.00,Wunderground v.1.15,2013-10-15 07:40:00,
2013-10-15 03:45:00,41.9,41.4,30.23,South,178,0.0,16.0,98,0.00,,,0.00,Wunderground v.1.15,2013-10-15 07:45:00,
2013-10-15 03:50:00,41.8,41.3,30.23,South,178,0.0,16.0,98,0.00,,,0.00,Wunderground v.1.15,2013-10-15 07:50:00,
2013-10-15 03:55:00,41.9,41.4,30.22,South,178,0.0,16.0,98,0.00,,,0.00,Wunderground v.1.15,2013-10-15 07:55:00,
2013-10-15 04:00:00,41.8,41.3,30.22,South,178,0.0,16.0,98,0.00,,,0.00,Wunderground v.1.15,2013-10-15 08:00:00,
2013-10-15 04:05:00,41.7,41.2,30.22,South,178,0.0,16.0,98,0.00,,,0.00,Wunderground v.1.15,2013-10-15 08:05:00,
2013-10-15 04:15:00,41.6,41.1,30.22,South,178,0.0,16.0,98,0.00,,,0.00,Wunderground v.1.15,2013-10-15 08:15:00,
2013-10-15 04:20:00,41.5,41.0,30.21,South,178,0.0,16.0,98,0.00,,,0.00,Wunderground v.1.15,2013-10-15 08:20:00,
2013-10-15 04:25:00,41.5,41.0,30.22,South,178,0.0,16.0,98,0.00,,,0.00,Wunderground v.1.15,2013-10-15 08:25:00,
2013-10-15 04:30:00,41.4,40.9,30.22,South,178,0.0,16.0,98,0.00,,,0.00,Wunderground v.1.15,2013-10-15 08:30:00,
2013-10-15 04:35:00,41.3,40.8,30.22,South,178,0.0,16.0,98,0.00,,,0.00,Wunderground v.1.15,2013-10-15 08:35:00,
2013-10-15 04:40:00,41.1,40.6,30.22,South,178,0.0,16.0,98,0.00,,,0.00,Wunderground v.1.15,2013-10-15 08:40:00,
2013-10-15 04:45:00,41.0,40.5,30.22,South,178,0.0,16.0,98,0.00,,,0.00,Wunderground v.1.15,2013-10-15 08:45:00,
2013-10-15 04:50:00,40.9,40.4,30.22,South,178,0.0,16.0,98,0.00,,,0.00,Wunderground v.1.15,2013-10-15 08:50:00,
2013-10-15 04:55:00,41.0,40.7,30.22,South,178,0.0,16.0,99,0.00,,,0.00,Wunderground v.1.15,2013-10-15 08:55:00,
2013-10-15 05:00:00,41.1,40.8,30.22,South,178,0.0,16.0,99,0.00,,,0.00,Wunderground v.1.15,2013-10-15 09:00:00,
2013-10-15 05:05:00,41.2,40.9,30.22,South,182,0.0,16.0,99,0.00,,,0.00,Wunderground v.1.15,2013-10-15 09:05:00,
2013-10-15 05:15:00,40.9,40.4,30.21,South,182,0.0,16.0,98,0.00,,,0.00,Wunderground v.1.15,2013-10-15 09:15:00,
2013-10-15 05:20:00,40.8,40.3,30.22,South,182,0.0,16.0,98,0.00,,,0.00,Wunderground v.1.15,2013-10-15 09:20:00,
2013-10-15 05:25:00,40.6,40.1,30.22,South,182,0.0,16.0,98,0.00,,,0.00,Wunderground v.1.15,2013-10-15 09:25:00,
2013-10-15 05:30:00,40.5,40.0,30.22,South,182,0.0,16.0,98,0.00,,,0.00,Wunderground v.1.15,2013-10-15 09:30:00,
2013-10-15 05:35:00,40.5,40.0,30.22,South,182,0.0,16.0,98,0.00,,,0.00,Wunderground v.1.15,2013-10-15 09:35:00,
2013-10-15 05:40:00,40.6,40.3,30.22,South,182,0.0,16.0,99,0.00,,,0.00,Wunderground v.1.15,2013-10-15 09:40:00,
2013-10-15 05:50:00,41.6,41.3,30.22,South,184,0.0,16.0,99,0.00,,,0.00,Wunderground v.1.15,2013-10-15 09:50:00,
2013-10-15 05:55:00,41.8,41.5,30.22,South,184,0.0,16.0,99,0.00,,,0.00,Wunderground v.1.15,2013-10-15 09:55:00,
2013-10-15 06:00:00,41.8,41.5,30.22,South,184,0.0,16.0,99,0.00,,,0.00,Wunderground v.1.15,2013-10-15 10:00:00,
2013-10-15 06:05:00,42.0,41.7,30.22,South,184,0.0,16.0,99,0.00,,,0.00,Wunderground v.1.15,2013-10-15 10:05:00,
2013-10-15 06:10:00,42.1,41.8,30.22,South,184,0.0,16.0,99,0.00,,,0.00,Wunderground v.1.15,2013-10-15 10:10:00,
2013-10-15 06:20:00,42.5,42.2,30.22,West,277,0.0,16.0,99,0.00,,,0.00,Wunderground v.1.15,2013-10-15 10:20:00,
2013-10-15 06:25:00,42.6,42.3,30.22,West,277,0.0,16.0,99,0.00,,,0.00,Wunderground v.1.15,2013-10-15 10:25:00,
2013-10-15 06:30:00,42.7,42.4,30.22,West,277,0.0,16.0,99,0.00,,,0.00,Wunderground v.1.15,2013-10-15 10:30:00,
2013-10-15 06:35:00,42.9,42.6,30.22,West,277,0.0,16.0,99,0.00,,,0.00,Wunderground v.1.15,2013-10-15 10:35:00,
2013-10-15 06:45:00,43.2,42.9,30.22,West,263,0.0,16.0,99,0.00,,,0.00,Wunderground v.1.15,2013-10-15 10:45:00,
2013-10-15 06:55:00,43.9,43.9,30.22,West,263,0.0,16.0,100,0.00,,,0.00,Wunderground v.1.15,2013-10-15 10:55:00,
2013-10-15 07:00:00,44.3,44.3,30.22,West,261,0.0,16.0,100,0.00,,,0.00,Wunderground v.1.15,2013-10-15 11:00:00,
2013-10-15 07:05:00,44.4,44.4,30.22,West,261,0.0,16.0,100,0.00,,,0.00,Wunderground v.1.15,2013-10-15 11:05:00,
2013-10-15 07:10:00,44.6,44.6,30.21,West,261,0.0,16.0,100,0.00,,,0.01,Wunderground v.1.15,2013-10-15 11:10:00,
2013-10-15 07:15:00,44.9,44.9,30.22,West,261,0.0,16.0,100,0.00,,,0.01,Wunderground v.1.15,2013-10-15 11:15:00,
2013-10-15 07:25:00,45.0,45.0,30.22,West,261,0.0,16.0,100,0.00,,,0.01,Wunderground v.1.15,2013-10-15 11:25:00,
2013-10-15 07:30:00,44.9,44.9,30.22,West,261,0.0,16.0,100,0.00,,,0.01,Wunderground v.1.15,2013-10-15 11:30:00,
2013-10-15 07:35:00,44.9,44.6,30.22,West,261,0.0,16.0,99,0.00,,,0.01,Wunderground v.1.15,2013-10-15 11:35:00,
2013-10-15 07:40:00,44.9,44.6,30.22,West,261,0.0,16.0,99,0.00,,,0.01,Wunderground v.1.15,2013-10-15 11:40:00,
2013-10-15 07:45:00,44.9,44.6,30.22,West,261,0.0,16.0,99,0.00,,,0.01,Wunderground v.1.15,2013-10-15 11:45:00,
2013-10-15 07:50:00,44.9,44.6,30.22,West,261,0.0,16.0,99,0.00,,,0.01,Wunderground v.1.15,2013-10-15 11:50:00,
2013-10-15 07:59:00,44.9,44.6,30.22,West,261,0.0,16.0,99,0.00,,,0.01,Wunderground v.1.15,2013-10-15 11:59:00,
2013-10-15 08:04:00,45.0,45.0,30.22,West,261,0.0,16.0,100,0.00,,,0.01,Wunderground v.1.15,2013-10-15 12:04:00,
2013-10-15 08:09:00,45.1,45.1,30.22,West,261,0.0,16.0,100,0.00,,,0.01,Wunderground v.1.15,2013-10-15 12:09:00,
2013-10-15 08:14:00,45.3,45.3,30.22,West,261,0.0,16.0,100,0.00,,,0.01,Wunderground v.1.15,2013-10-15 12:14:00,
2013-10-15 08:20:00,45.5,45.5,30.21,West,261,0.0,16.0,100,0.00,,,0.01,Wunderground v.1.15,2013-10-15 12:20:00,
2013-10-15 08:25:00,45.7,45.7,30.21,West,261,0.0,16.0,100,0.00,,,0.01,Wunderground v.1.15,2013-10-15 12:25:00,
2013-10-15 08:30:00,46.0,46.0,30.21,West,261,0.0,16.0,100,0.00,,,0.01,Wunderground v.1.15,2013-10-15 12:30:00,
2013-10-15 08:35:00,46.3,46.3,30.21,West,260,0.0,16.0,100,0.00,,,0.01,Wunderground v.1.15,2013-10-15 12:35:00,
2013-10-15 08:40:00,46.4,46.4,30.22,West,260,0.0,16.0,100,0.00,,,0.01,Wunderground v.1.15,2013-10-15 12:40:00,
2013-10-15 08:45:00,46.4,46.4,30.22,West,260,0.0,16.0,100,0.00,,,0.01,Wunderground v.1.15,2013-10-15 12:45:00,
2013-10-15 08:50:00,46.5,46.5,30.21,West,260,0.0,16.0,100,0.00,,,0.01,Wunderground v.1.15,2013-10-15 12:50:00,
2013-10-15 09:00:00,47.4,47.4,30.22,West,259,1.0,1.0,100,0.00,,,0.01,Wunderground v.1.15,2013-10-15 13:00:00,
2013-10-15 09:05:00,48.2,48.2,30.22,West,259,1.0,4.0,100,0.00,,,0.01,Wunderground v.1.15,2013-10-15 13:05:00,
2013-10-15 09:10:00,49.0,49.0,30.21,SSW,207,2.0,2.0,100,0.00,,,0.01,Wunderground v.1.15,2013-10-15 13:10:00,
2013-10-15 09:15:00,49.7,49.7,30.21,SSW,207,2.0,16.0,100,0.00,,,0.01,Wunderground v.1.15,2013-10-15 13:15:00,
2013-10-15 09:20:00,50.0,50.0,30.21,SSW,207,1.0,16.0,100,0.00,,,0.01,Wunderground v.1.15,2013-10-15 13:20:00,
2013-10-15 09:25:00,50.4,50.4,30.20,SSW,207,1.0,16.0,100,0.00,,,0.01,Wunderground v.1.15,2013-10-15 13:25:00,
2013-10-15 09:35:00,51.2,51.2,30.20,ENE,74,0.0,16.0,100,0.00,,,0.01,Wunderground v.1.15,2013-10-15 13:35:00,
2013-10-15 09:40:00,51.0,51.0,30.20,West,273,1.0,16.0,100,0.00,,,0.01,Wunderground v.1.15,2013-10-15 13:40:00,
2013-10-15 09:45:00,50.6,50.6,30.20,West,269,2.0,16.0,100,0.00,,,0.01,Wunderground v.1.15,2013-10-15 13:45:00,
2013-10-15 09:50:00,51.2,51.2,30.20,West,269,1.0,1.0,100,0.00,,,0.01,Wunderground v.1.15,2013-10-15 13:50:00,
2013-10-15 09:55:00,51.4,51.4,30.20,West,269,1.0,2.0,100,0.00,,,0.01,Wunderground v.1.15,2013-10-15 13:55:00,
2013-10-15 10:05:00,52.6,52.6,30.19,West,269,0.0,16.0,100,0.00,,,0.01,Wunderground v.1.15,2013-10-15 14:05:00,
2013-10-15 10:10:00,53.2,53.2,30.19,West,269,0.0,16.0,100,0.00,,,0.01,Wunderground v.1.15,2013-10-15 14:10:00,
2013-10-15 10:15:00,53.8,53.8,30.19,West,269,0.0,16.0,100,0.00,,,0.01,Wunderground v.1.15,2013-10-15 14:15:00,
2013-10-15 10:20:00,54.5,54.5,30.18,West,259,0.0,16.0,100,0.00,,,0.01,Wunderground v.1.15,2013-10-15 14:20:00,
2013-10-15 10:25:00,54.6,54.0,30.18,West,265,1.0,16.0,98,0.00,,,0.01,Wunderground v.1.15,2013-10-15 14:25:00,
2013-10-15 10:30:00,55.3,54.7,30.18,West,265,1.0,1.0,98,0.00,,,0.01,Wunderground v.1.15,2013-10-15 14:30:00,
2013-10-15 10:40:00,56.7,55.9,30.18,West,265,0.0,16.0,97,0.00,,,0.01,Wunderground v.1.15,2013-10-15 14:40:00,
2013-10-15 10:45:00,57.4,56.3,30.17,West,265,0.0,16.0,96,0.00,,,0.01,Wunderground v.1.15,2013-10-15 14:45:00,
2013-10-15 10:50:00,58.3,56.3,30.17,ESE,122,1.0,16.0,93,0.00,,,0.01,Wunderground v.1.15,2013-10-15 14:50:00,
2013-10-15 10:55:00,59.0,55.8,30.17,SSW,205,3.0,16.0,89,0.00,,,0.01,Wunderground v.1.15,2013-10-15 14:55:00,
2013-10-15 11:00:00,59.6,56.4,30.17,SW,222,4.0,16.0,89,0.00,,,0.01,Wunderground v.1.15,2013-10-15 15:00:00,
2013-10-15 11:10:00,60.2,55.7,30.17,SSW,194,4.0,4.0,85,0.00,,,0.01,Wunderground v.1.15,2013-10-15 15:10:00,
2013-10-15 11:15:00,60.5,56.3,30.16,SSE,152,4.0,5.0,86,0.00,,,0.01,Wunderground v.1.15,2013-10-15 15:15:00,
2013-10-15 11:20:00,61.3,56.8,30.16,SSE,150,4.0,16.0,85,0.00,,,0.01,Wunderground v.1.15,2013-10-15 15:20:00,
2013-10-15 11:25:00,61.9,56.7,30.16,SE,138,4.0,16.0,83,0.00,,,0.01,Wunderground v.1.15,2013-10-15 15:25:00,
2013-10-15 11:30:00,62.3,56.7,30.16,SSW,211,4.0,4.0,82,0.00,,,0.01,Wunderground v.1.15,2013-10-15 15:30:00,
2013-10-15 11:35:00,62.2,56.6,30.16,SSE,152,3.0,16.0,82,0.00,,,0.01,Wunderground v.1.15,2013-10-15 15:35:00,
2013-10-15 11:40:00,62.5,56.9,30.16,SE,135,2.0,2.0,82,0.00,,,0.01,Wunderground v.1.15,2013-10-15 15:40:00,
2013-10-15 11:45:00,62.9,57.3,30.15,SSW,194,1.0,16.0,82,0.00,,,0.01,Wunderground v.1.15,2013-10-15 15:45:00,
2013-10-15 11:50:00,62.9,57.3,30.15,SSW,207,1.0,16.0,82,0.00,,,0.01,Wunderground v.1.15,2013-10-15 15:50:00,
2013-10-15 11:55:00,62.4,56.1,30.15,SSW,212,3.0,16.0,80,0.00,,,0.01,Wunderground v.1.15,2013-10-15 15:55:00,
2013-10-15 12:00:00,62.0,55.8,30.15,SSW,200,5.0,16.0,80,0.00,,,0.01,Wunderground v.1.15,2013-10-15 16:00:00,
2013-10-15 12:05:00,62.0,56.1,30.15,WSW,238,3.0,16.0,81,0.00,,,0.01,Wunderground v.1.15,2013-10-15 16:05:00,
2013-10-15 12:15:00,62.0,56.1,30.15,SE,126,3.0,16.0,81,0.00,,,0.01,Wunderground v.1.15,2013-10-15 16:15:00,
2013-10-15 12:20:00,62.3,56.4,30.15,South,176,3.0,3.0,81,0.00,,,0.01,Wunderground v.1.15,2013-10-15 16:20:00,
2013-10-15 12:25:00,62.4,56.5,30.14,SSE,167,3.0,16.0,81,0.00,,,0.01,Wunderground v.1.15,2013-10-15 16:25:00,
2013-10-15 12:30:00,62.5,56.6,30.14,South,190,3.0,3.0,81,0.00,,,0.01,Wunderground v.1.15,2013-10-15 16:30:00,
2013-10-15 12:35:00,62.4,56.1,30.14,WSW,244,3.0,16.0,80,0.00,,,0.01,Wunderground v.1.15,2013-10-15 16:35:00,
2013-10-15 12:45:00,62.4,55.8,30.13,WSW,246,5.0,5.0,79,0.00,,,0.01,Wunderground v.1.15,2013-10-15 16:45:00,
2013-10-15 12:50:00,62.6,56.3,30.13,SSW,209,3.0,16.0,80,0.00,,,0.01,Wunderground v.1.15,2013-10-15 16:50:00,
2013-10-15 12:55:00,62.7,56.4,30.13,SSW,194,2.0,16.0,80,0.00,,,0.01,Wunderground v.1.15,2013-10-15 16:55:00,
2013-10-15 13:00:00,62.6,56.3,30.13,SSW,201,3.0,16.0,80,0.00,,,0.01,Wunderground v.1.15,2013-10-15 17:00:00,
2013-10-15 13:05:00,62.3,56.0,30.13,SSW,212,3.0,16.0,80,0.00,,,0.01,Wunderground v.1.15,2013-10-15 17:05:00,
2013-10-15 13:10:00,62.2,56.0,30.12,SSW,211,3.0,3.0,80,0.00,,,0.01,Wunderground v.1.15,2013-10-15 17:10:00,
2013-10-15 13:20:00,61.9,56.0,30.12,SSW,211,3.0,16.0,81,0.00,,,0.01,Wunderground v.1.15,2013-10-15 17:20:00,
2013-10-15 13:25:00,61.8,55.9,30.11,SSW,200,3.0,16.0,81,0.00,,,0.01,Wunderground v.1.15,2013-10-15 17:25:00,
2013-10-15 13:30:00,61.8,55.9,30.11,SW,215,2.0,16.0,81,0.00,,,0.01,Wunderground v.1.15,2013-10-15 17:30:00,
2013-10-15 13:35:00,61.8,55.9,30.11,SW,229,3.0,16.0,81,0.00,,,0.01,Wunderground v.1.15,2013-10-15 17:35:00,
2013-10-15 13:40:00,61.8,55.9,30.11,SW,222,4.0,16.0,81,0.00,,,0.01,Wunderground v.1.15,2013-10-15 17:40:00,
2013-10-15 13:50:00,62.3,56.4,30.11,SSW,207,3.0,16.0,81,0.00,,,0.01,Wunderground v.1.15,2013-10-15 17:50:00,
2013-10-15 13:55:00,62.5,56.6,30.10,SSW,194,3.0,16.0,81,0.00,,,0.01,Wunderground v.1.15,2013-10-15 17:55:00,
2013-10-15 14:00:00,63.3,57.4,30.10,SW,227,3.0,16.0,81,0.00,,,0.01,Wunderground v.1.15,2013-10-15 18:00:00,
2013-10-15 14:05:00,63.9,56.9,30.10,SSE,147,3.0,16.0,78,0.00,,,0.01,Wunderground v.1.15,2013-10-15 18:05:00,
2013-10-15 14:10:00,64.0,57.0,30.10,SSW,198,3.0,3.0,78,0.00,,,0.01,Wunderground v.1.15,2013-10-15 18:10:00,
2013-10-15 14:15:00,64.3,57.6,30.09,SSE,163,2.0,16.0,79,0.00,,,0.01,Wunderground v.1.15,2013-10-15 18:15:00,
2013-10-15 14:25:00,64.4,56.7,30.09,SE,137,4.0,16.0,76,0.00,,,0.01,Wunderground v.1.15,2013-10-15 18:25:00,
2013-10-15 14:30:00,64.5,57.5,30.09,SSW,194,4.0,4.0,78,0.00,,,0.01,Wunderground v.1.15,2013-10-15 18:30:00,
2013-10-15 14:35:00,64.6,57.6,30.08,SE,146,2.0,16.0,78,0.00,,,0.01,Wunderground v.1.15,2013-10-15 18:35:00,
2013-10-15 14:40:00,64.5,57.1,30.08,SE,128,2.0,16.0,77,0.00,,,0.01,Wunderground v.1.15,2013-10-15 18:40:00,
2013-10-15 14:45:00,64.5,57.5,30.08,ESE,122,3.0,16.0,78,0.00,,,0.01,Wunderground v.1.15,2013-10-15 18:45:00,
2013-10-15 14:55:00,64.5,56.8,30.08,ESE,123,4.0,16.0,76,0.00,,,0.01,Wunderground v.1.15,2013-10-15 18:55:00,
2013-10-15 15:00:00,64.1,56.7,30.07,SE,136,5.0,5.0,77,0.00,,,0.01,Wunderground v.1.15,2013-10-15 19:00:00,
2013-10-15 15:04:00,64.0,56.3,30.07,South,178,5.0,16.0,76,0.00,,,0.01,Wunderground v.1.15,2013-10-15 19:04:00,
2013-10-15 15:10:00,63.8,56.4,30.07,ESE,103,5.0,16.0,77,0.00,,,0.01,Wunderground v.1.15,2013-10-15 19:10:00,
2013-10-15 15:15:00,63.6,56.6,30.06,SSW,195,3.0,16.0,78,0.00,,,0.01,Wunderground v.1.15,2013-10-15 19:15:00,
2013-10-15 15:20:00,63.4,56.4,30.06,ESE,122,3.0,16.0,78,0.00,,,0.01,Wunderground v.1.15,2013-10-15 19:20:00,
2013-10-15 15:25:00,63.4,56.4,30.06,ESE,123,4.0,16.0,78,0.00,,,0.01,Wunderground v.1.15,2013-10-15 19:25:00,
2013-10-15 15:30:00,63.2,56.2,30.05,WSW,243,6.0,16.0,78,0.00,,,0.01,Wunderground v.1.15,2013-10-15 19:30:00,
2013-10-15 15:35:00,62.9,56.3,30.05,SE,140,4.0,16.0,79,0.00,,,0.01,Wunderground v.1.15,2013-10-15 19:35:00,
2013-10-15 15:40:00,62.7,56.1,30.05,SSE,157,3.0,3.0,79,0.00,,,0.01,Wunderground v.1.15,2013-10-15 19:40:00,
2013-10-15 15:45:00,62.7,56.4,30.05,South,182,3.0,16.0,80,0.00,,,0.01,Wunderground v.1.15,2013-10-15 19:45:00,
2013-10-15 15:50:00,63.0,56.4,30.05,South,173,3.0,3.0,79,0.00,,,0.01,Wunderground v.1.15,2013-10-15 19:50:00,
2013-10-15 16:00:00,63.2,56.2,30.04,South,178,4.0,4.0,78,0.00,,,0.01,Wunderground v.1.15,2013-10-15 20:00:00,
2013-10-15 16:05:00,63.4,56.1,30.04,SSW,204,4.0,7.0,77,0.00,,,0.01,Wunderground v.1.15,2013-10-15 20:05:00,
2013-10-15 16:10:00,63.5,55.8,30.04,SSE,159,6.0,6.0,76,0.00,,,0.01,Wunderground v.1.15,2013-10-15 20:10:00,
2013-10-15 16:15:00,63.6,56.3,30.04,SSW,200,4.0,7.0,77,0.00,,,0.01,Wunderground v.1.15,2013-10-15 20:15:00,
2013-10-15 16:20:00,63.4,56.1,30.04,SSW,210,2.0,2.0,77,0.00,,,0.01,Wunderground v.1.15,2013-10-15 20:20:00,
2013-10-15 16:30:00,63.3,56.3,30.04,SSW,213,5.0,16.0,78,0.00,,,0.01,Wunderground v.1.15,2013-10-15 20:30:00,
2013-10-15 16:35:00,63.5,56.5,30.04,SSW,209,5.0,16.0,78,0.00,,,0.01,Wunderground v.1.15,2013-10-15 20:35:00,
2013-10-15 16:40:00,63.4,56.4,30.04,SSW,213,6.0,6.0,78,0.00,,,0.01,Wunderground v.1.15,2013-10-15 20:40:00,
2013-10-15 16:45:00,63.3,56.3,30.04,SSW,205,5.0,16.0,78,0.00,,,0.01,Wunderground v.1.15,2013-10-15 20:45:00,
2013-10-15 16:50:00,63.2,56.6,30.04,WSW,250,4.0,4.0,79,0.00,,,0.01,Wunderground v.1.15,2013-10-15 20:50:00,
2013-10-15 16:55:00,63.2,56.6,30.04,SSW,209,3.0,16.0,79,0.00,,,0.01,Wunderground v.1.15,2013-10-15 20:55:00,
2013-10-15 17:05:00,63.5,56.9,30.04,SW,216,3.0,16.0,79,0.00,,,0.01,Wunderground v.1.15,2013-10-15 21:05:00,
2013-10-15 17:10:00,63.7,56.7,30.04,SSW,211,2.0,16.0,78,0.00,,,0.01,Wunderground v.1.15,2013-10-15 21:10:00,
2013-10-15 17:15:00,63.7,56.7,30.04,SW,228,2.0,16.0,78,0.00,,,0.01,Wunderground v.1.15,2013-10-15 21:15:00,
2013-10-15 17:20:00,63.4,56.8,30.03,SSW,208,4.0,4.0,79,0.00,,,0.01,Wunderground v.1.15,2013-10-15 21:20:00,
2013-10-15 17:25:00,63.3,56.7,30.03,SSW,209,4.0,16.0,79,0.00,,,0.01,Wunderground v.1.15,2013-10-15 21:25:00,
2013-10-15 17:35:00,63.0,56.7,30.03,SSW,204,0.0,16.0,80,0.00,,,0.01,Wunderground v.1.15,2013-10-15 21:35:00,
2013-10-15 17:40:00,62.9,56.6,30.03,SSW,207,1.0,1.0,80,0.00,,,0.01,Wunderground v.1.15,2013-10-15 21:40:00,
2013-10-15 17:45:00,62.7,56.4,30.03,SSW,207,1.0,16.0,80,0.00,,,0.01,Wunderground v.1.15,2013-10-15 21:45:00,
2013-10-15 17:50:00,62.6,56.3,30.03,SSW,207,0.0,16.0,80,0.00,,,0.01,Wunderground v.1.15,2013-10-15 21:50:00,
2013-10-15 17:55:00,62.5,56.6,30.03,SSW,207,0.0,16.0,81,0.00,,,0.01,Wunderground v.1.15,2013-10-15 21:55:00,
2013-10-15 18:00:00,62.3,56.7,30.03,SSW,207,0.0,16.0,82,0.00,,,0.01,Wunderground v.1.15,2013-10-15 22:00:00,
2013-10-15 18:10:00,61.7,56.5,30.03,SSW,207,0.0,16.0,83,0.00,,,0.01,Wunderground v.1.15,2013-10-15 22:10:00,
2013-10-15 18:15:00,61.5,56.6,30.02,SSW,207,0.0,16.0,84,0.00,,,0.01,Wunderground v.1.15,2013-10-15 22:15:00,
2013-10-15 18:20:00,61.3,56.8,30.02,SSW,207,0.0,16.0,85,0.00,,,0.01,Wunderground v.1.15,2013-10-15 22:20:00,
2013-10-15 18:25:00,61.0,56.5,30.02,SSW,207,0.0,16.0,85,0.00,,,0.01,Wunderground v.1.15,2013-10-15 22:25:00,
2013-10-15 18:30:00,60.8,56.3,30.02,SSW,207,0.0,16.0,85,0.00,,,0.01,Wunderground v.1.15,2013-10-15 22:30:00,
2013-10-15 18:39:00,60.2,56.0,30.02,SSW,207,0.0,16.0,86,0.00,,,0.01,Wunderground v.1.15,2013-10-15 22:39:00,
2013-10-15 18:44:00,60.0,56.1,30.02,SSW,207,0.0,16.0,87,0.00,,,0.01,Wunderground v.1.15,2013-10-15 22:44:00,
2013-10-15 18:50:00,59.7,55.8,30.02,SSW,207,0.0,16.0,87,0.00,,,0.01,Wunderground v.1.15,2013-10-15 22:50:00,
2013-10-15 18:55:00,59.5,55.9,30.03,SSW,207,0.0,16.0,88,0.00,,,0.01,Wunderground v.1.15,2013-10-15 22:55:00,
2013-10-15 19:00:00,59.4,55.8,30.02,SSW,207,0.0,16.0,88,0.00,,,0.01,Wunderground v.1.15,2013-10-15 23:00:00,
2013-10-15 19:05:00,59.3,55.7,30.02,SSW,207,0.0,16.0,88,0.00,,,0.01,Wunderground v.1.15,2013-10-15 23:05:00,
2013-10-15 19:10:00,59.3,55.7,30.02,SSW,207,0.0,16.0,88,0.00,,,0.01,Wunderground v.1.15,2013-10-15 23:10:00,
2013-10-15 19:15:00,59.5,55.9,30.02,SSW,207,0.0,16.0,88,0.00,,,0.01,Wunderground v.1.15,2013-10-15 23:15:00,
2013-10-15 19:20:00,59.9,56.0,30.01,SSW,207,1.0,1.0,87,0.00,,,0.01,Wunderground v.1.15,2013-10-15 23:20:00,
2013-10-15 19:25:00,60.1,55.9,30.01,SSW,207,1.0,4.0,86,0.00,,,0.01,Wunderground v.1.15,2013-10-15 23:25:00,
2013-10-15 19:30:00,60.4,56.2,30.01,SSW,207,1.0,16.0,86,0.00,,,0.01,Wunderground v.1.15,2013-10-15 23:30:00,
2013-10-15 19:35:00,60.5,56.3,30.01,SSW,207,1.0,16.0,86,0.00,,,0.01,Wunderground v.1.15,2013-10-15 23:35:00,
2013-10-15 19:45:00,60.7,56.2,30.01,SSW,207,1.0,16.0,85,0.00,,,0.01,Wunderground v.1.15,2013-10-15 23:45:00,
2013-10-15 19:50:00,60.7,56.2,30.00,SSW,207,1.0,16.0,85,0.00,,,0.01,Wunderground v.1.15,2013-10-15 23:50:00,
2013-10-15 19:55:00,60.6,56.1,30.00,SSW,207,1.0,16.0,85,0.00,,,0.01,Wunderground v.1.15,2013-10-15 23:55:00,
2013-10-15 20:00:00,60.6,56.1,30.00,SSW,207,1.0,1.0,85,0.00,,,0.01,Wunderground v.1.15,2013-10-16 00:00:00,
2013-10-15 20:05:00,60.5,56.3,30.00,SSW,207,1.0,2.0,86,0.00,,,0.01,Wunderground v.1.15,2013-10-16 00:05:00,
2013-10-15 20:15:00,60.6,56.4,30.00,SSW,207,2.0,16.0,86,0.00,,,0.01,Wunderground v.1.15,2013-10-16 00:15:00,
2013-10-15 20:20:00,60.5,56.3,30.00,WSW,256,1.0,16.0,86,0.00,,,0.01,Wunderground v.1.15,2013-10-16 00:20:00,
2013-10-15 20:25:00,60.4,56.2,30.00,WSW,256,1.0,16.0,86,0.00,,,0.01,Wunderground v.1.15,2013-10-16 00:25:00,
2013-10-15 20:30:00,60.3,56.1,30.00,WSW,256,1.0,16.0,86,0.00,,,0.01,Wunderground v.1.15,2013-10-16 00:30:00,
2013-10-15 20:35:00,60.3,56.1,29.99,WSW,256,1.0,16.0,86,0.00,,,0.01,Wunderground v.1.15,2013-10-16 00:35:00,
2013-10-15 20:40:00,60.3,56.1,29.99,WSW,256,1.0,1.0,86,0.00,,,0.01,Wunderground v.1.15,2013-10-16 00:40:00,
2013-10-15 20:50:00,60.1,55.9,29.99,WSW,257,1.0,16.0,86,0.00,,,0.01,Wunderground v.1.15,2013-10-16 00:50:00,
2013-10-15 20:55:00,59.5,55.6,29.99,WSW,248,3.0,16.0,87,0.00,,,0.01,Wunderground v.1.15,2013-10-16 00:55:00,
2013-10-15 21:00:00,59.1,55.5,29.99,WSW,247,4.0,4.0,88,0.00,,,0.01,Wunderground v.1.15,2013-10-16 01:00:00,
2013-10-15 21:05:00,59.0,55.8,29.99,WSW,246,3.0,16.0,89,0.00,,,0.01,Wunderground v.1.15,2013-10-16 01:05:00,
2013-10-15 21:10:00,59.2,56.0,29.99,WSW,246,2.0,16.0,89,0.00,,,0.01,Wunderground v.1.15,2013-10-16 01:10:00,
2013-10-15 21:20:00,59.1,55.5,29.98,WSW,246,2.0,16.0,88,0.00,,,0.01,Wunderground v.1.15,2013-10-16 01:20:00,
2013-10-15 21:25:00,58.9,55.7,29.99,WSW,246,2.0,16.0,89,0.00,,,0.01,Wunderground v.1.15,2013-10-16 01:25:00,
2013-10-15 21:30:00,58.8,55.6,29.98,WSW,246,2.0,2.0,89,0.00,,,0.01,Wunderground v.1.15,2013-10-16 01:30:00,
2013-10-15 21:35:00,58.8,55.6,29.98,WSW,246,1.0,16.0,89,0.00,,,0.01,Wunderground v.1.15,2013-10-16 01:35:00,
2013-10-15 21:40:00,58.9,55.7,29.98,WSW,246,0.0,16.0,89,0.00,,,0.01,Wunderground v.1.15,2013-10-16 01:40:00,
2013-10-15 21:45:00,59.3,55.7,29.97,SW,225,1.0,16.0,88,0.00,,,0.01,Wunderground v.1.15,2013-10-16 01:45:00,
2013-10-15 21:55:00,60.7,56.2,29.97,SSW,208,4.0,16.0,85,0.00,,,0.01,Wunderground v.1.15,2013-10-16 01:55:00,
2013-10-15 22:00:00,61.1,56.2,29.97,SSW,195,4.0,4.0,84,0.00,,,0.01,Wunderground v.1.15,2013-10-16 02:00:00,
2013-10-15 22:05:00,61.2,56.3,29.97,SSW,201,4.0,16.0,84,0.00,,,0.01,Wunderground v.1.15,2013-10-16 02:05:00,
2013-10-15 22:10:00,61.2,56.3,29.97,SW,218,3.0,3.0,84,0.00,,,0.01,Wunderground v.1.15,2013-10-16 02:10:00,
2013-10-15 22:15:00,61.1,55.9,29.96,SSW,196,2.0,16.0,83,0.00,,,0.01,Wunderground v.1.15,2013-10-16 02:15:00,
2013-10-15 22:20:00,61.0,56.1,29.97,SSW,198,2.0,16.0,84,0.00,,,0.01,Wunderground v.1.15,2013-10-16 02:20:00,
2013-10-15 22:25:00,61.0,56.1,29.97,SSW,207,4.0,16.0,84,0.00,,,0.01,Wunderground v.1.15,2013-10-16 02:25:00,
2013-10-15 22:30:00,61.1,55.9,29.96,SSW,210,4.0,16.0,83,0.00,,,0.01,Wunderground v.1.15,2013-10-16 02:30:00,
2013-10-15 22:35:00,61.3,56.1,29.96,SSW,213,4.0,16.0,83,0.00,,,0.01,Wunderground v.1.15,2013-10-16 02:35:00,
2013-10-15 22:40:00,61.3,56.1,29.96,WSW,244,4.0,4.0,83,0.00,,,0.01,Wunderground v.1.15,2013-10-16 02:40:00,
2013-10-15 22:45:00,60.5,55.6,29.96,WSW,254,3.0,16.0,84,0.00,,,0.01,Wunderground v.1.15,2013-10-16 02:45:00,
2013-10-15 22:55:00,59.7,55.5,29.96,WSW,249,3.0,16.0,86,0.00,,,0.01,Wunderground v.1.15,2013-10-16 02:55:00,
2013-10-15 23:00:00,59.6,55.4,29.96,WSW,243,3.0,3.0,86,0.00,,,0.01,Wunderground v.1.15,2013-10-16 03:00:00,
2013-10-15 23:05:00,59.8,55.6,29.96,SW,216,3.0,4.0,86,0.00,,,0.01,Wunderground v.1.15,2013-10-16 03:05:00,
2013-10-15 23:10:00,60.4,55.5,29.96,SW,227,5.0,16.0,84,0.00,,,0.01,Wunderground v.1.15,2013-10-16 03:10:00,
2013-10-15 23:15:00,61.0,55.8,29.95,SW,222,5.0,16.0,83,0.00,,,0.01,Wunderground v.1.15,2013-10-16 03:15:00,
2013-10-15 23:20:00,61.2,55.7,29.95,SW,236,5.0,5.0,82,0.00,,,0.01,Wunderground v.1.15,2013-10-16 03:20:00,
2013-10-15 23:30:00,61.2,55.3,29.94,SW,230,4.0,4.0,81,0.00,,,0.01,Wunderground v.1.15,2013-10-16 03:30:00,
2013-10-15 23:35:00,61.2,55.3,29.95,SW,221,3.0,5.0,81,0.00,,,0.01,Wunderground v.1.15,2013-10-16 03:35:00,
2013-10-15 23:40:00,61.2,55.3,29.95,West,270,4.0,4.0,81,0.00,,,0.01,Wunderground v.1.15,2013-10-16 03:40:00,
2013-10-15 23:45:00,61.1,55.2,29.95,SW,216,4.0,9.0,81,0.00,,,0.01,Wunderground v.1.15,2013-10-16 03:45:00,
2013-10-15 23:50:00,61.2,55.3,29.95,SSW,199,5.0,16.0,81,0.00,,,0.01,Wunderground v.1.15,2013-10-16 03:50:00,